This is the latest recevied weather packets stored in our database for station/object N8TWM-13. If no packets are shown the sender has not sent any weather packets the latest 10 day(s).
| Time | Temp. | Humidity | Pressure | Rain* | Wind** | Luminosity | Snow |
|---|---|---|---|---|---|---|---|
| 1777829582 | 15° C | 44% | 1016 hPa | 0 mm | - | 164 W/m² | - |
| 1777829279 | 14.44° C | 47% | 1015.8 hPa | 0 mm | - | 201 W/m² | - |
| 1777828976 | 13.89° C | 46% | 1016 hPa | 0 mm | - | 203 W/m² | - |
| 1777828672 | 13.33° C | 47% | 1016.1 hPa | 0 mm | - | 208 W/m² | - |
| 1777828369 | 13.33° C | 46% | 1016.2 hPa | 0 mm | - | 194 W/m² | - |
| 1777828066 | 13.33° C | 47% | 1016.3 hPa | 0 mm | - | 682 W/m² | - |
| 1777827763 | 13.89° C | 48% | 1016.2 hPa | 0 mm | - | 134 W/m² | - |
| 1777827460 | 13.89° C | 48% | 1016.4 hPa | 0 mm | - | 725 W/m² | - |
| 1777827158 | 13.89° C | 51% | 1016.2 hPa | 0 mm | - | 707 W/m² | - |
| 1777826853 | 13.89° C | 49% | 1016.5 hPa | 0 mm | - | 708 W/m² | - |
| 1777826551 | 13.33° C | 49% | 1016.6 hPa | 0 mm | - | 519 W/m² | - |
| 1777826247 | 13.89° C | 46% | 1016.3 hPa | 0 mm | - | 101 W/m² | - |
| 1777825945 | 13.89° C | 47% | 1016.6 hPa | 0 mm | - | 346 W/m² | - |
| 1777825641 | 13.33° C | 49% | 1016.5 hPa | 0 mm | - | 713 W/m² | - |
| 1777825340 | 13.89° C | 50% | 1016.8 hPa | 0 mm | - | 725 W/m² | - |
| 1777825036 | 12.78° C | 51% | 1016.6 hPa | 0 mm | - | 724 W/m² | - |
| 1777824732 | 12.78° C | 52% | 1016.5 hPa | 0 mm | - | 726 W/m² | - |
| 1777824429 | 12.78° C | 51% | 1016.6 hPa | 0 mm | - | 563 W/m² | - |
| 1777824125 | 12.78° C | 52% | 1016.6 hPa | 0 mm | - | 88 W/m² | - |
| 1777823821 | 12.78° C | 51% | 1017 hPa | 0 mm | - | 712 W/m² | - |
| 1777823520 | 12.78° C | 51% | 1016.9 hPa | 0 mm | - | 685 W/m² | - |
| 1777823216 | 12.78° C | 52% | 1017.2 hPa | 0 mm | - | 705 W/m² | - |
| 1777822914 | 12.78° C | 53% | 1017 hPa | 0 mm | - | 726 W/m² | - |
| 1777822612 | 12.78° C | 53% | 1017 hPa | 0 mm | - | 731 W/m² | - |
| 1777822309 | 12.22° C | 51% | 1017 hPa | 0 mm | - | 761 W/m² | - |
* Rain latest hour (hover to see other rain measurements)
** Current wind speed in m/s (hover to see current wind gust speed)